Date_and_time,latitude,longitude,wind_speed,RelWindDirFrom,WindDirFrom,air_pressure,air_temperature,relative_humidity,Temp,platform_speed_wrt_ground,air_pressure_at_mean_sea_level,platform_orientation
2018-07-27 23:50,50.630445,-96.9807866666667,5.6,12.2,294,992.62,24.3,42,22.59,0.0,1018.22,60.8
2018-07-28 00:00,50.6304516666667,-96.980775,6.8,11.8,285,992.56,22.8,45,22.69,0.0,1018.22,356.8
2018-07-28 00:10,50.6304466666667,-96.9807716666667,4.9,7.9,275,992.52,21.7,46,22.98,0.0,1018.20,356.8
2018-07-28 00:20,50.6304433333333,-96.9807666666667,5.4,8.2,287,992.58,21.5,46,23.15,0.0,1018.26,356.8
2018-07-28 00:30,50.6304433333333,-96.980765,7.6,13.3,298,992.67,21.0,49,23.22,0.0,1018.37,356.8
2018-07-28 00:40,50.6304416666667,-96.980765,7.8,11.5,301,992.66,20.9,50,23.38,0.0,1018.37,356.8
2018-07-28 00:50,50.6304233333333,-96.9807583333333,6.9,10.7,304,992.64,20.8,52,23.30,0.0,1018.38,356.8
2018-07-28 01:00,50.6304316666667,-96.9807533333333,5.9,10.1,289,992.60,20.7,53,23.02,0.0,1018.34,79.8
2018-07-28 01:10,50.6304783333333,-96.9807916666667,5.0,7.5,258,992.55,20.4,55,22.80,0.0,1018.29,79.8
2018-07-28 01:20,50.63045,-96.98077,3.9,7.5,275,992.57,20.1,56,22.59,0.0,1018.33,79.8
2018-07-28 01:30,50.63044,-96.9807683333333,4.8,8.6,290,992.47,20.3,56,22.55,0.0,1018.25,79.8
2018-07-28 01:40,50.6304383333333,-96.9807683333333,4.6,7.2,269,992.47,20.3,56,22.54,0.0,1018.33,79.8
2018-07-28 01:50,50.6304366666667,-96.9807666666667,5.1,7.3,273,992.43,20.2,56,22.39,0.0,1018.36,79.8
2018-07-28 02:00,50.630435,-96.9807683333333,4.8,6.5,270,992.51,20.1,58,22.30,0.0,1018.49,194.5
2018-07-28 02:10,50.630435,-96.98077,4.6,6.3,275,992.58,19.8,58,22.49,0.0,1018.58,194.5
2018-07-28 02:20,50.6304283333333,-96.98077,4.8,6.9,296,992.60,19.7,57,22.19,0.0,1018.63,194.5
2018-07-28 02:30,50.6304316666667,-96.9807683333333,4.7,6.1,306,992.66,19.7,57,22.52,0.0,1018.70,194.5
2018-07-28 02:40,50.6304516666667,-96.9807633333333,3.4,5.3,329,992.72,19.7,57,22.78,0.0,1018.76,194.5
2018-07-28 02:50,50.630445,-96.9807616666667,3.8,5.0,8,992.86,20.1,59,22.51,0.0,1018.90,194.5
2018-07-28 03:00,50.6304433333333,-96.9807666666667,2.0,5.9,83,993.25,20.5,58,22.27,0.0,1019.30,360.0
2018-07-28 03:10,50.6304433333333,-96.9807666666667,7.9,11.7,112,993.41,20.9,63,22.78,0.0,1019.45,360.0
2018-07-28 03:20,50.6304433333333,-96.9807666666667,5.5,11.2,63,993.51,21.1,62,22.34,0.0,1019.54,360.0
2018-07-28 03:30,50.6304433333333,-96.9807616666667,7.4,9.0,75,993.33,21.5,61,22.16,0.0,1019.34,360.0
2018-07-28 03:40,50.6304433333333,-96.9807616666667,16.4,20.7,71,993.12,21.0,73,22.11,0.0,1019.15,360.0
2018-07-28 03:50,50.6304416666667,-96.9807616666667,18.0,20.8,74,993.06,20.2,81,22.64,0.0,1019.12,360.0
2018-07-28 04:00,50.6304416666667,-96.98076,14.9,19.1,82,993.06,20.1,81,22.82,0.0,1019.14,318.7
2018-07-28 04:10,50.6304366666667,-96.980785,13.0,16.3,88,993.02,20.0,80,22.05,0.0,1019.11,318.7
2018-07-28 04:20,50.630435,-96.9807683333333,12.0,14.4,96,993.13,20.0,78,21.66,0.0,1019.22,318.7
2018-07-28 04:30,50.63044,-96.9807683333333,11.2,13.7,92,993.24,19.9,77,21.91,0.0,1019.34,318.7
2018-07-28 04:40,50.6304416666667,-96.9807666666667,11.0,14.5,89,993.20,19.8,74,22.10,0.0,1019.29,318.7
2018-07-28 04:50,50.6304333333333,-96.98076,10.8,13.6,93,993.06,19.7,72,21.84,0.0,1019.13,318.7
2018-07-28 05:00,50.6304366666667,-96.9807583333333,10.5,12.9,98,993.07,19.7,72,21.87,0.0,1019.12,90.0
2018-07-28 05:10,50.6304383333333,-96.9807583333333,10.2,12.1,106,992.97,19.6,73,21.98,0.0,1019.01,90.0
2018-07-28 05:20,50.6304433333333,-96.9807683333333,10.5,12.6,115,992.79,19.6,71,22.12,0.0,1018.81,90.0
2018-07-28 05:30,50.6304433333333,-96.9807616666667,8.1,10.8,131,992.67,19.5,69,22.24,0.0,1018.71,90.0
2018-07-28 05:40,50.6304433333333,-96.9807616666667,6.8,8.4,165,992.64,19.1,68,22.12,0.0,1018.74,90.0
2018-07-28 05:50,50.630445,-96.9807633333333,5.3,6.8,204,992.65,18.7,73,22.10,0.0,1018.77,90.0
2018-07-28 06:00,50.6304466666667,-96.9807633333333,3.9,6.4,218,992.57,18.1,75,22.32,0.0,1018.72,360.0
2018-07-28 06:10,50.6304466666667,-96.9807633333333,3.2,5.0,215,992.55,17.8,77,22.30,0.0,1018.71,360.0
2018-07-28 06:20,50.630445,-96.980765,5.3,7.8,236,992.64,17.3,78,22.33,0.0,1018.83,360.0
2018-07-28 06:30,50.630445,-96.9807633333333,6.1,8.8,245,992.65,16.3,84,22.42,0.0,1018.89,360.0
2018-07-28 06:40,50.630445,-96.9807633333333,5.8,8.0,242,992.62,15.6,88,22.56,0.0,1018.90,360.0
2018-07-28 06:50,50.6304433333333,-96.9807633333333,6.4,8.8,249,992.57,15.3,90,22.55,0.0,1018.87,360.0
2018-07-28 07:00,50.6304233333333,-96.9807683333333,6.5,8.8,251,992.54,15.0,92,22.48,0.0,1018.85,219.5
2018-07-28 07:10,50.6304266666667,-96.98076,6.7,9.1,257,992.53,14.9,93,22.46,0.0,1018.84,219.5
2018-07-28 07:20,50.6304516666667,-96.9807733333333,5.8,8.0,257,992.51,14.8,94,22.48,0.0,1018.83,219.5
2018-07-28 07:30,50.6304433333333,-96.9807733333333,7.0,9.9,253,992.56,14.7,92,22.45,0.0,1018.90,219.5
2018-07-28 07:40,50.6304433333333,-96.9807716666667,7.3,9.7,258,992.51,14.8,92,22.43,0.0,1018.87,219.5
2018-07-28 07:50,50.6304433333333,-96.9807716666667,7.2,10.0,255,992.49,15.0,89,22.31,0.0,1018.87,219.5
2018-07-28 08:00,50.6304416666667,-96.9807716666667,7.4,9.7,260,992.50,15.2,86,22.40,0.0,1018.88,299.2
2018-07-28 08:10,50.6304416666667,-96.98077,6.8,9.6,265,992.49,15.3,85,22.43,0.0,1018.89,299.2
2018-07-28 08:20,50.6304416666667,-96.98077,6.8,9.6,262,992.50,15.2,85,22.38,0.0,1018.95,299.2
2018-07-28 08:30,50.63044,-96.98077,7.2,10.0,257,992.57,15.2,83,22.24,0.0,1019.06,299.2
2018-07-28 08:40,50.63044,-96.9807683333333,7.6,10.8,254,992.62,15.1,83,22.26,0.0,1019.12,299.2
2018-07-28 08:50,50.6304483333333,-96.9807783333333,7.5,11.0,259,992.56,15.1,82,22.35,0.0,1019.07,299.2
2018-07-28 09:00,50.630445,-96.9807733333333,6.4,8.9,261,992.53,15.2,83,22.28,0.0,1019.05,192.6
2018-07-28 09:10,50.6304433333333,-96.9807683333333,6.3,9.3,255,992.56,15.2,82,22.25,0.0,1019.08,192.6
2018-07-28 09:20,50.6304433333333,-96.9807683333333,6.2,8.3,260,992.64,15.4,81,22.36,0.0,1019.16,192.6
2018-07-28 09:30,50.6304416666667,-96.980765,6.8,9.6,259,992.66,15.3,83,22.42,0.0,1019.18,192.6
2018-07-28 09:40,50.6304416666667,-96.980765,6.4,9.3,258,992.67,15.2,83,22.38,0.0,1019.18,192.6
2018-07-28 09:50,50.63042,-96.9807666666667,6.7,10.5,259,992.68,15.1,83,22.16,0.0,1019.19,192.6
2018-07-28 10:00,50.63043,-96.9807366666667,7.2,9.7,261,992.64,15.1,83,22.33,0.0,1019.15,90.0
2018-07-28 10:10,50.63045,-96.980775,7.1,9.8,256,992.71,15.0,84,22.36,0.0,1019.22,90.0
2018-07-28 10:20,50.6304416666667,-96.980765,7.0,8.9,258,992.78,14.8,84,22.22,0.0,1019.30,90.0
2018-07-28 10:30,50.6304383333333,-96.9807633333333,6.0,8.0,260,992.82,14.8,84,21.98,0.0,1019.35,90.0
2018-07-28 10:40,50.6304383333333,-96.9807633333333,5.6,7.5,258,992.85,14.8,85,22.01,0.0,1019.39,90.0
2018-07-28 10:50,50.63044,-96.980765,5.8,8.7,257,992.89,14.8,85,22.20,0.0,1019.41,90.0
2018-07-28 11:00,50.6304416666667,-96.9807633333333,5.4,7.8,274,992.89,15.0,85,22.24,0.0,1019.41,90.0
2018-07-28 11:10,50.63044,-96.9807716666667,4.9,6.8,280,992.96,15.0,85,22.19,0.0,1019.47,90.0
2018-07-28 11:20,50.6304483333333,-96.9807816666667,4.3,7.1,288,993.10,15.2,83,22.00,0.0,1019.61,90.0
2018-07-28 11:30,50.6304466666667,-96.9807716666667,3.1,4.7,278,993.20,15.2,82,21.88,0.0,1019.72,90.0
2018-07-28 11:40,50.6304466666667,-96.98077,2.4,3.8,267,993.33,15.1,83,22.01,0.0,1019.86,90.0
2018-07-28 11:50,50.6304433333333,-96.9807716666667,2.7,4.1,242,993.41,15.1,82,22.01,0.0,1019.94,90.0
2018-07-28 12:00,50.6304433333333,-96.9807716666667,2.9,4.0,215,993.48,15.1,84,21.94,0.0,1020.02,0.0
2018-07-28 12:10,50.6304433333333,-96.9807683333333,1.1,2.8,226,993.58,15.2,84,21.81,0.0,1020.13,0.0
2018-07-28 12:20,50.6304433333333,-96.9807666666667,0.7,3.0,244,993.61,15.5,81,21.68,0.0,1020.15,0.0
2018-07-28 12:30,50.6304416666667,-96.9807666666667,2.9,3.9,218,993.69,15.7,80,21.76,0.0,1020.22,0.0
2018-07-28 12:40,50.6304416666667,-96.980765,1.1,3.2,211,993.75,15.5,84,21.89,0.0,1020.29,0.0
2018-07-28 12:50,50.6304416666667,-96.9807616666667,1.9,2.8,189,993.72,15.6,83,21.93,0.0,1020.24,0.0
2018-07-28 13:00,50.6304316666667,-96.980765,0.5,1.8,176,993.78,15.9,81,21.86,0.0,1020.29,287.7
2018-07-28 13:10,50.63043,-96.980765,0.5,1.9,181,993.84,16.5,78,21.69,0.0,1020.32,287.7
2018-07-28 13:20,50.6304416666667,-96.9807633333333,1.5,2.2,126,993.78,17.1,76,21.69,0.0,1020.22,287.7
2018-07-28 13:30,50.63044,-96.9807716666667,0.6,2.1,112,993.74,17.6,73,21.72,0.0,1020.17,287.7
2018-07-28 13:40,50.6304416666667,-96.980765,1.8,3.0,186,993.71,17.2,74,21.66,0.0,1020.15,287.7
2018-07-28 13:50,50.6304416666667,-96.980765,2.2,3.5,164,993.72,17.2,76,21.76,0.0,1020.17,287.7
2018-07-28 14:00,50.6304366666667,-96.9807533333333,1.5,3.2,212,993.72,17.6,74,21.68,0.0,1020.14,119.2
2018-07-28 14:10,50.6304366666667,-96.98076,2.2,4.2,274,993.69,18.5,69,21.55,0.0,1020.06,119.2
2018-07-28 14:20,50.6304433333333,-96.9807483333333,2.2,4.3,273,993.66,19.1,67,21.50,0.0,1019.99,119.2
2018-07-28 14:30,50.6304416666667,-96.9807516666667,2.0,4.3,285,993.62,19.7,65,21.50,0.0,1019.93,119.2
2018-07-28 14:40,50.6304266666667,-96.9807583333333,2.1,4.7,293,993.58,20.2,63,21.49,0.0,1019.86,119.2
2018-07-28 14:50,50.6304383333333,-96.9807616666667,2.5,4.7,275,993.48,20.8,61,21.49,0.0,1019.72,119.2
2018-07-28 15:00,50.6304383333333,-96.9807666666667,2.1,4.3,279,993.36,21.2,58,21.48,0.0,1019.55,90.0
2018-07-28 15:10,50.6304383333333,-96.9807666666667,0.8,5.6,284,993.30,21.8,57,21.46,0.0,1019.43,90.0
2018-07-28 15:20,50.6304416666667,-96.9807683333333,4.2,5.8,108,993.22,22.2,64,21.46,0.0,1019.31,90.0
2018-07-28 15:30,50.6304416666667,-96.980765,4.1,5.0,110,993.18,22.0,67,21.54,0.0,1019.29,90.0
2018-07-28 15:40,50.6304433333333,-96.980765,4.5,5.4,112,993.22,22.0,67,21.52,0.0,1019.33,90.0
2018-07-28 15:50,50.6304433333333,-96.9807633333333,4.8,6.2,115,993.22,21.9,67,21.61,0.0,1019.33,90.0
2018-07-28 16:00,50.6304416666667,-96.9807616666667,4.3,6.1,115,993.24,22.4,64,21.68,0.0,1019.28,41.3
2018-07-28 16:10,50.6304433333333,-96.9807633333333,4.2,5.3,131,993.20,22.2,66,21.63,0.0,1019.22,41.3
2018-07-28 16:20,50.6304516666667,-96.9807516666667,4.5,5.7,117,993.18,22.5,66,21.68,0.0,1019.16,41.3
2018-07-28 16:30,50.63044,-96.9807616666667,5.5,6.5,120,993.15,22.3,68,21.66,0.0,1019.12,41.3
2018-07-28 16:40,50.63043,-96.98077,6.0,7.7,110,993.12,22.4,68,21.64,0.0,1019.06,41.3
2018-07-28 16:50,50.630435,-96.9807716666667,6.3,7.7,109,993.10,22.5,68,21.63,0.0,1019.01,41.3
2018-07-28 17:00,50.6304283333333,-96.98073,6.6,7.5,110,993.12,22.6,67,21.65,0.0,1019.00,130.6
2018-07-28 17:10,50.6304433333333,-96.98076,6.6,7.5,105,993.12,22.7,67,21.75,0.0,1018.99,130.6
2018-07-28 17:20,50.630445,-96.98076,6.9,8.4,101,993.10,23.1,65,21.97,0.0,1018.94,130.6
2018-07-28 17:30,50.630445,-96.9807583333333,7.3,8.0,103,993.00,23.1,65,21.99,0.0,1018.85,130.6
2018-07-28 17:40,50.6304433333333,-96.9807583333333,7.3,8.4,103,992.90,23.4,63,21.91,0.0,1018.74,130.6
2018-07-28 17:50,50.630445,-96.98076,6.8,7.9,112,992.90,23.3,63,22.00,0.0,1018.72,130.6
2018-07-28 18:00,50.630445,-96.9807616666667,7.0,7.7,117,992.83,22.9,64,22.11,0.0,1018.68,90.0
2018-07-28 18:10,50.6304566666667,-96.9807816666667,7.6,8.7,116,992.77,23.0,63,22.15,0.0,1018.59,90.0
2018-07-28 18:20,50.630445,-96.980775,8.2,9.0,117,992.69,22.9,64,22.25,0.0,1018.53,90.0
2018-07-28 18:30,50.6304466666667,-96.9807666666667,8.0,8.9,110,992.58,23.2,62,22.39,0.0,1018.39,90.0
2018-07-28 18:40,50.6304466666667,-96.9807633333333,7.5,8.5,103,992.49,23.7,60,22.44,0.0,1018.27,90.0
2018-07-28 18:50,50.6304466666667,-96.9807616666667,7.4,8.2,105,992.43,24.1,59,22.42,0.0,1018.20,90.0
2018-07-28 19:00,50.630445,-96.98076,8.4,10.3,109,992.37,23.8,60,22.38,0.0,1018.14,0.0
2018-07-28 19:10,50.6304233333333,-96.980745,9.2,10.4,103,992.18,24.0,59,22.41,0.0,1017.92,0.0
2018-07-28 19:20,50.63046,-96.9807866666667,9.3,10.6,118,992.13,23.6,61,22.48,0.0,1017.88,0.0
2018-07-28 19:30,50.63045,-96.980775,8.6,10.1,123,992.06,23.6,60,22.51,0.0,1017.81,0.0
2018-07-28 19:40,50.630445,-96.9807733333333,8.0,9.3,116,992.02,23.6,60,22.50,0.0,1017.76,0.0
2018-07-28 19:50,50.6304466666667,-96.9807733333333,7.7,8.9,106,991.91,24.1,58,22.53,0.0,1017.65,0.0
2018-07-28 20:00,50.6304466666667,-96.9807733333333,7.5,9.1,109,991.80,24.6,57,22.60,0.0,1017.50,310.6
2018-07-28 20:10,50.6304383333333,-96.9807616666667,7.8,8.9,118,991.74,24.2,59,22.55,0.0,1017.47,310.6
2018-07-28 20:20,50.63043,-96.9807583333333,8.1,9.3,116,991.66,24.1,59,22.48,0.0,1017.38,310.6
2018-07-28 20:30,50.6304383333333,-96.9807633333333,7.7,8.8,119,991.63,24.3,56,22.47,0.0,1017.32,310.6
2018-07-28 20:40,50.63044,-96.9807616666667,7.6,8.8,124,991.55,24.2,58,22.56,0.0,1017.22,310.6
2018-07-28 20:50,50.63043,-96.9807533333333,7.4,9.2,133,991.51,24.2,57,22.69,0.0,1017.19,310.6
2018-07-28 21:00,50.6304383333333,-96.9807666666667,7.6,9.6,138,991.46,23.8,56,22.77,0.0,1017.15,270.0
2018-07-28 21:10,50.6304466666667,-96.9807633333333,8.1,9.3,130,991.39,24.3,56,22.83,0.0,1017.07,270.0
2018-07-28 21:20,50.630445,-96.9807283333333,7.1,9.1,129,991.33,24.2,58,23.03,0.0,1017.01,270.0
2018-07-28 21:30,50.63046,-96.9807683333333,6.1,7.9,136,991.35,24.2,57,23.18,0.0,1017.04,270.0
2018-07-28 21:40,50.63044,-96.9807716666667,7.0,9.4,149,991.28,23.9,55,23.27,0.0,1016.95,270.0
2018-07-28 21:50,50.6304483333333,-96.980775,7.7,8.8,144,991.20,23.7,56,23.17,0.0,1016.86,270.0
2018-07-28 22:00,50.6304283333333,-96.9807433333333,7.4,9.3,149,991.18,23.4,58,23.10,0.0,1016.87,147.5
2018-07-28 22:10,50.6304316666667,-96.98076,5.0,7.6,171,991.24,23.7,60,23.29,0.0,1016.93,147.5
2018-07-28 22:20,50.6304266666667,-96.9807583333333,7.2,9.3,178,991.23,23.9,54,23.31,0.0,1016.90,147.5
2018-07-28 22:30,50.630445,-96.9807733333333,5.3,9.4,183,991.18,24.9,43,23.33,0.0,1016.80,147.5
2018-07-28 22:40,50.6304316666667,-96.980755,4.5,11.1,193,991.15,25.5,42,23.31,0.0,1016.75,147.5
2018-07-28 22:50,50.6304383333333,-96.9807666666667,4.1,7.8,161,991.16,24.8,47,23.20,0.0,1016.80,147.5
2018-07-28 23:00,50.6304366666667,-96.9807666666667,4.7,8.3,228,991.20,25.6,38,23.33,0.0,1016.79,165.5
2018-07-28 23:10,50.6304366666667,-96.9807683333333,5.3,8.2,244,991.15,26.0,36,23.28,0.0,1016.73,165.5
2018-07-28 23:20,50.630435,-96.98077,5.4,7.8,233,991.17,26.1,35,23.31,0.0,1016.74,165.5
2018-07-28 23:30,50.630435,-96.9807683333333,6.6,9.9,240,991.17,26.5,33,23.37,0.0,1016.74,165.5
2018-07-28 23:40,50.6304383333333,-96.9807633333333,6.1,9.0,251,991.07,26.7,32,23.53,0.0,1016.63,165.5
2018-07-28 23:50,50.630445,-96.9807783333333,6.1,8.9,245,990.95,26.7,32,23.45,0.0,1016.53,165.5
